Location: McCall
(45.0000°N, 116.0000°W)
Time: 01:56:24
(UTC-06:00)

Amateur Radio Satellites - All Passes

Search period start: 28 May 2016 01:26
Search period end: 29 May 2016 01:26
Location: McCall, 45.0000°N, 116.0000°W

Satellite Date Start Highest point End Downlink Frequencies (MHz)
Time Altitude Azimuth
POPSAT HIP 1 28 May 01:27:30 01:31:44 88° 283° (WNW) 01:35:55 437.405
QB50P1 28 May 01:27:52 01:32:06 85° 281° (W) 01:36:17 145.935-145.965
TISAT 1 28 May 01:29:26 01:33:25 42° 71° (ENE) 01:37:25 437.305
QB50P2 28 May 01:30:18 01:34:32 77° 285° (WNW) 01:38:43 145.880/145.840
UKube-1 28 May 01:31:17 01:35:09 31° 263° (W) 01:39:02 .
POLYITAN 1 28 May 01:32:46 01:36:59 75° 285° (WNW) 01:41:09 437.675
Cosmos 2499 28 May 01:39:33 01:44:58 21° 300° (WNW) 01:50:42 435.465 / 435.565
50 SAT 28 May 01:44:09 01:45:24 11° 270° (W) 01:46:38 437.505
NANOSAT C BR1 28 May 01:46:12 01:50:19 56° 287° (WNW) 01:54:25 145.865
UNISAT 6 28 May 01:49:23 01:51:13 13° 300° (WNW) 01:53:02 437.425
Oscar 19 28 May 01:52:06 01:54:16 13° 88° (E) 01:56:26 437.125/150
TIGRISAT 28 May 01:57:20 01:58:35 11° 301° (WNW) 01:59:50 435.000
DANDE 28 May 02:03:06 02:09:28 25° 279° (W) 02:15:29 436.750
GONETS M04 28 May 02:03:20 02:06:40 12° 310° (NW) 02:10:01
PHONESAT 2.4 28 May 02:16:45 02:19:34 31° 189° (S) 02:22:23 2401.200-2431.200
YUBILEINY 28 May 02:20:51 02:26:09 17° 56° (NE) 02:31:27 435.215
SWISSCUBE 28 May 02:21:29 02:25:47 35° 68° (ENE) 02:30:07 437.505
DUCHIFAT 1 28 May 02:25:12 02:28:35 24° 294° (WNW) 02:31:57 145.980
ITUPSAT 1 28 May 02:27:49 02:32:09 36° 68° (ENE) 02:36:31 437.325
ISS 28 May 02:34:35 02:37:28 28° 10° (N) 02:40:20 145.825
BUGSAT 1 28 May 02:41:34 02:45:09 31° 292° (WNW) 02:48:41 437.445
RS-15 28 May 02:49:28 03:01:48 73° 50° (NE) 03:14:08 29.354- 29.394
BEESAT 28 May 02:50:43 02:55:23 61° 72° (ENE) 03:00:05 436.000
JAS-2 28 May 03:01:57 03:09:32 82° 287° (WNW) 03:16:18 435.910
SO-50 28 May 03:04:30 03:08:45 28° 319° (NW) 03:13:00 436.795
TISAT 1 28 May 03:06:18 03:09:16 18° 267° (W) 03:12:15 437.305
Cosmos 2491 28 May 03:21:41 03:26:23 16° 73° (ENE) 03:31:04 435.465 / 435.565
Oscar 19 28 May 03:29:05 03:34:17 85° 285° (WNW) 03:39:25 437.125/150
KKS-1 28 May 03:40:18 03:43:59 26° 66° (ENE) 03:47:41 437.445
PHONESAT 2.4 28 May 03:54:10 03:55:46 13° 205° (SSW) 03:57:21 2401.200-2431.200
Gurwin Techsat 1B 28 May 03:55:11 04:00:32 72° 103° (ESE) 04:05:50 435.225
MOZHAYETS 4 28 May 03:58:40 04:02:34 29° 67° (ENE) 04:06:29
SWISSCUBE 28 May 03:59:35 04:03:38 28° 265° (W) 04:07:43 437.505
ITUPSAT 1 28 May 04:06:01 04:10:03 27° 265° (W) 04:14:07 437.325
ISS 28 May 04:10:58 04:14:14 86° 27° (NNE) 04:17:29 145.825
ITAMSAT 1 28 May 04:11:40 04:16:36 41° 98° (E) 04:21:31 435.822/435.867
STARS 28 May 04:14:34 04:18:24 30° 67° (ENE) 04:22:15 437.465
YUBILEINY 28 May 04:15:58 04:24:45 73° 79° (E) 04:33:31 435.215
BEESAT 28 May 04:30:39 04:33:35 16° 269° (W) 04:36:32 436.000
AO-7 28 May 04:31:46 04:38:49 29° 94° (E) 04:45:49 29.400- 29.500
JAS-2 28 May 04:48:19 04:53:19 20° 308° (NW) 04:58:04 435.910
Cosmos 2504 28 May 04:58:43 05:06:40 44° 72° (ENE) 05:14:56 435.465 / 435.565
RS-15 28 May 05:02:42 05:13:30 39° 254° (WSW) 05:24:17 29.354- 29.394
Oscar 19 28 May 05:10:25 05:12:49 13° 304° (NW) 05:15:12 437.125/150
Cosmos 2491 28 May 05:12:49 05:21:37 76° 95° (E) 05:30:26 435.465 / 435.565
KKS-1 28 May 05:16:20 05:20:26 34° 263° (W) 05:24:31 437.445
CUBESAT XI-V 28 May 05:25:17 05:29:14 28° 66° (ENE) 05:33:12 437.345
MOZHAYETS 4 28 May 05:35:36 05:39:40 32° 264° (W) 05:43:45
Gurwin Techsat 1B 28 May 05:36:23 05:39:54 18° 301° (WNW) 05:43:25 435.225
ISS 28 May 05:48:25 05:50:16 14° 227° (SW) 05:52:06 145.825
STARS 28 May 05:50:53 05:54:44 29° 264° (W) 05:58:35 437.465
ITAMSAT 1 28 May 05:51:28 05:55:55 29° 296° (WNW) 06:00:21 435.822/435.867
YUBILEINY 28 May 06:13:54 06:20:42 26° 280° (W) 06:27:31 435.215
AO-7 28 May 06:23:53 06:32:11 69° 294° (WNW) 06:40:28 29.400- 29.500
HORYU 2 28 May 06:31:28 06:35:54 66° 103° (ESE) 06:40:18 437.375
NOAA 15 28 May 06:38:23 06:41:43 17° 90° (E) 06:45:01 137.62
Cubesat XI-IV 28 May 06:45:48 06:48:23 13° 88° (E) 06:50:56 437.490
NOAA 18 28 May 06:48:07 06:51:40 17° 91° (E) 06:55:12 137.9125
AO-85 28 May 06:48:58 06:54:12 48° 118° (ESE) 06:59:19 145.980
Cosmos 2504 28 May 06:52:12 07:00:05 47° 272° (W) 07:08:20 435.465 / 435.565
STRAND 1 28 May 06:57:32 07:01:31 24° 62° (ENE) 07:05:30 437.568
CUBESAT XI-V 28 May 07:02:12 07:06:28 35° 264° (W) 07:10:48 437.345
BRITE-PL 28 May 07:02:35 07:06:31 22° 90° (E) 07:10:12 437.365/2234.400
Cosmos 2491 28 May 07:12:14 07:19:24 27° 297° (WNW) 07:26:36 435.465 / 435.565
LilacSat-2 28 May 07:21:24 07:24:25 22° 94° (E) 07:27:24 437.200
GOMX 1 28 May 07:24:53 07:27:40 16° 88° (E) 07:30:20 467.674
CUTE-I 28 May 07:30:11 07:35:02 34° 96° (E) 07:39:52 437.470
HORYU 2 28 May 08:09:27 08:11:56 15° 300° (WNW) 08:14:26 437.375
DOVE 4 28 May 08:10:05 08:13:19 20° 91° (E) 08:16:26 437.250
GONETS M04 28 May 08:10:53 08:16:50 20° 58° (ENE) 08:22:44
SO-50 28 May 08:13:23 08:16:28 17° 32° (NNE) 08:19:29 436.795
NOAA 15 28 May 08:16:43 08:22:01 69° 287° (WNW) 08:27:15 137.62
AO-7 28 May 08:18:13 08:23:31 19° 315° (NW) 08:28:50 29.400- 29.500
PRISM 28 May 08:23:24 08:26:48 25° 66° (ENE) 08:30:15 437.425
Cubesat XI-IV 28 May 08:23:45 08:29:08 85° 284° (WNW) 08:34:30 437.490
NOAA 18 28 May 08:27:23 08:32:51 70° 288° (WNW) 08:38:18 137.9125
AO-85 28 May 08:29:57 08:34:53 34° 316° (NW) 08:39:40 145.980
STRAND 1 28 May 08:35:27 08:40:22 49° 260° (W) 08:45:21 437.568
CINEMA 3 28 May 08:37:30 08:38:33 11° 88° (E) 08:39:35 145.822/145.860
BRITE-PL 28 May 08:40:21 08:45:19 47° 290° (WNW) 08:49:52 437.365/2234.400
CUTE 1.7 + AOD 2 28 May 08:50:18 08:52:54 16° 91° (E) 08:55:28 437.475
LilacSat-2 28 May 08:55:28 08:58:43 28° 291° (WNW) 09:01:59 437.200
HO-68 28 May 09:00:48 09:06:56 29° 94° (E) 09:13:01 435.675
GOMX 1 28 May 09:01:36 09:06:15 56° 288° (WNW) 09:10:34 467.674
COMPASS 1 28 May 09:09:54 09:11:52 13° 89° (E) 09:13:51 437.405
CUTE-I 28 May 09:10:14 09:15:04 35° 294° (WNW) 09:19:54 437.470
AAUSAT CUBESAT 2 28 May 09:12:33 09:13:37 11° 88° (E) 09:14:40 437.432
AIST 1 28 May 09:15:09 09:19:32 77° 81° (E) 09:23:51
CUBEBUG 2 28 May 09:22:29 09:23:20 11° 88° (E) 09:24:12 437.445
Cosmos 2499 28 May 09:31:19 09:39:05 36° 69° (ENE) 09:47:03 435.465 / 435.565
TIGRISAT 28 May 09:45:51 09:46:53 11° 59° (ENE) 09:47:54 435.000
DOVE 4 28 May 09:47:08 09:51:15 39° 290° (WNW) 09:55:11 437.250
UWE-3 28 May 09:48:12 09:50:34 15° 91° (E) 09:52:57 435.000/436.395/437.385
SO-50 28 May 09:53:01 09:57:46 77° 52° (NE) 10:02:21 436.795
CANX-2 28 May 09:57:38 10:01:57 89° 274° (W) 10:06:14 2200.000
PRISM 28 May 09:58:19 10:02:00 31° 263° (W) 10:05:45 437.425
SEEDS 28 May 09:58:52 10:03:06 60° 101° (E) 10:07:19 437.485
NOAA 15 28 May 09:59:13 10:00:49 11° 306° (NW) 10:02:25 137.62
Cubesat XI-IV 28 May 10:05:43 10:08:24 14° 304° (NW) 10:11:04 437.490
GONETS M04 28 May 10:06:24 10:15:10 83° 81° (E) 10:23:52
O/OREOS (USA 219) 28 May 10:10:26 10:14:42 40° 107° (ESE) 10:18:58 437.305
NOAA 18 28 May 10:10:32 10:12:32 12° 307° (NW) 10:14:34 137.9125
CINEMA 3 28 May 10:12:03 10:16:13 68° 286° (WNW) 10:20:19 145.822/145.860
AUBIESAT-1 28 May 10:13:27 10:16:47 85° 289° (WNW) 10:20:05 437.475
AO-85 28 May 10:15:19 10:16:56 11° 338° (NNW) 10:18:30 145.980
ANTELSAT 28 May 10:17:02 10:20:26 23° 66° (ENE) 10:23:49 437.575/2403.000
M-CUBED/EXP-1 PRIME 28 May 10:20:56 10:24:09 52° 292° (WNW) 10:27:20 437.505
CUTE 1.7 + AOD 2 28 May 10:24:52 10:29:03 52° 287° (WNW) 10:33:13 437.475
Oscar 11 28 May 10:31:52 10:35:49 33° 96° (E) 10:39:43 145.826/435.025
PCSat 28 May 10:41:39 10:46:59 61° 117° (ESE) 10:52:21 145.827
COMPASS 1 28 May 10:43:39 10:47:50 61° 286° (WNW) 10:52:00 437.405
AAUSAT CUBESAT 2 28 May 10:45:23 10:49:36 73° 285° (WNW) 10:53:47 437.432
ZACube-1 28 May 10:47:28 10:51:27 42° 98° (E) 10:55:29 437.345
HO-68 28 May 10:48:00 10:55:02 59° 293° (WNW) 11:02:02 435.675
QB50P1 28 May 10:50:18 10:50:57 10° 59° (ENE) 10:51:36 145.935-145.965
POPSAT HIP 1 28 May 10:50:21 10:50:38 10° 58° (ENE) 10:50:56 437.405
HUMSAT D 28 May 10:50:58 10:52:21 11° 89° (E) 10:53:46 437.325/437.525
QB50P2 28 May 10:52:04 10:53:29 11° 59° (ENE) 10:54:54 145.880/145.840
POLYITAN 1 28 May 10:54:26 10:55:57 12° 60° (ENE) 10:57:26 437.675
AIST 1 28 May 10:56:00 10:56:25 10° 278° (W) 10:56:50
CUBEBUG 2 28 May 10:56:18 11:00:28 72° 284° (WNW) 11:04:39 437.445
NANOSAT C BR1 28 May 11:06:24 11:08:45 15° 62° (ENE) 11:11:05 145.865
DELFI C3 28 May 11:09:04 11:12:52 38° 98° (E) 11:16:39 145.870
UNISAT 6 28 May 11:11:17 11:15:38 83° 77° (ENE) 11:19:58 437.425
TIGRISAT 28 May 11:18:34 11:22:55 88° 249° (WSW) 11:27:14 435.000
UWE-3 28 May 11:23:17 11:27:21 52° 287° (WNW) 11:31:28 435.000/436.395/437.385
Cosmos 2499 28 May 11:24:13 11:32:34 58° 269° (W) 11:41:10 435.465 / 435.565
FUNcube-1 28 May 11:25:00 11:29:12 80° 284° (WNW) 11:33:27 145.935
BEESAT 3 28 May 11:26:38 11:28:36 13° 110° (ESE) 11:30:35 437.485
JAS-2 28 May 11:33:43 11:37:48 15° 48° (NE) 11:41:56 435.910
SO-50 28 May 11:35:11 11:37:35 14° 252° (WSW) 11:39:57 436.795
SEEDS 28 May 11:35:57 11:38:20 15° 298° (WNW) 11:40:43 437.485
CANX-2 28 May 11:36:22 11:37:06 10° 301° (WNW) 11:37:51 2200.000
DUCHIFAT 1 28 May 11:42:57 11:46:40 31° 68° (ENE) 11:50:23 145.980
CUSAT 1 28 May 11:45:40 11:51:11 29° 83° (E) 11:57:32 437.405
O/OREOS (USA 219) 28 May 11:50:30 11:54:15 25° 306° (NW) 11:58:00 437.305
DANDE 28 May 11:50:31 11:53:16 13° 73° (ENE) 11:56:17 436.750
ANTELSAT 28 May 11:52:58 11:56:59 36° 263° (W) 12:00:58 437.575/2403.000
BUGSAT 1 28 May 11:58:05 12:01:23 23° 66° (ENE) 12:04:39 437.445
GONETS M04 28 May 12:04:44 12:10:53 22° 282° (WNW) 12:17:01
Oscar 11 28 May 12:08:14 12:11:49 26° 293° (WNW) 12:15:24 145.826/435.025
ESTCUBE 1 28 May 12:18:46 12:22:13 21° 93° (E) 12:25:39 437.505/2401.250
POPSAT HIP 1 28 May 12:21:29 12:25:44 88° 77° (ENE) 12:29:59 437.405
QB50P1 28 May 12:21:48 12:26:03 90° 24° (NNE) 12:30:18 145.935-145.965
HUMSAT D 28 May 12:24:17 12:28:26 68° 285° (WNW) 12:32:36 437.325/437.525
QB50P2 28 May 12:24:25 12:28:40 81° 257° (WSW) 12:32:56 145.880/145.840
ZACube-1 28 May 12:24:29 12:27:29 19° 295° (WNW) 12:30:31 437.345
PCSat 28 May 12:26:15 12:30:47 26° 317° (NW) 12:35:20 145.827
POLYITAN 1 28 May 12:26:54 12:31:08 79° 257° (WSW) 12:35:23 437.675
CUBEBUG 1 28 May 12:28:16 12:31:14 18° 91° (E) 12:34:11 437.445
BEESAT 2 28 May 12:29:11 12:32:48 35° 117° (ESE) 12:36:27 435.950
DX 1 28 May 12:29:38 12:32:02 14° 91° (E) 12:34:26 434.975-435.025
VELOX 1 28 May 12:37:14 12:40:37 21° 93° (E) 12:43:58 145.980
HO-68 28 May 12:38:02 12:41:19 14° 314° (NW) 12:44:36 435.675
NANOSAT C BR1 28 May 12:39:50 12:44:01 60° 259° (W) 12:48:12 145.865
DELFI C3 28 May 12:44:34 12:47:30 20° 295° (WNW) 12:50:25 145.870
SPROUT 28 May 12:52:14 12:53:57 12° 89° (E) 12:55:39 437.525
BEESAT 3 28 May 13:01:54 13:05:48 62° 307° (NW) 13:09:45 437.485
50 SAT 28 May 13:08:42 13:12:21 50° 100° (E) 13:15:59 437.505
Oscar 19 28 May 13:09:55 13:14:02 24° 63° (ENE) 13:18:11 437.125/150
AISAT 28 May 13:12:47 13:17:07 51° 100° (E) 13:21:24 437.250
JAS-2 28 May 13:13:55 13:21:12 60° 69° (ENE) 13:28:56 435.910
UKube-1 28 May 13:15:59 13:19:59 35° 98° (E) 13:23:56 .
DUCHIFAT 1 28 May 13:18:53 13:22:23 25° 265° (W) 13:25:52 145.980
Cosmos 2499 28 May 13:21:44 13:23:49 11° 289° (WNW) 13:25:56 435.465 / 435.565
CUSAT 1 28 May 13:26:09 13:32:39 62° 286° (WNW) 13:40:29 437.405
DANDE 28 May 13:28:44 13:34:23 78° 97° (E) 13:41:49 436.750
BUGSAT 1 28 May 13:32:43 13:36:35 35° 263° (W) 13:40:26 437.445
AO-85 28 May 13:39:54 13:42:43 15° 29° (NNE) 13:45:23 145.980
Gurwin Techsat 1B 28 May 13:40:17 13:44:09 21° 61° (ENE) 13:48:02 435.225
AO-7 28 May 13:46:14 13:49:43 13° 38° (NE) 13:53:11 29.400- 29.500
ESTCUBE 1 28 May 13:54:54 13:59:13 43° 290° (WNW) 14:03:30 437.505/2401.250
ITAMSAT 1 28 May 13:56:10 13:58:04 12° 55° (NE) 13:59:57 435.822/435.867
CUBEBUG 1 28 May 14:03:34 14:07:48 47° 289° (WNW) 14:11:58 437.445
DX 1 28 May 14:04:19 14:08:37 58° 288° (WNW) 14:12:52 434.975-435.025
BEESAT 2 28 May 14:07:16 14:10:42 27° 316° (NW) 14:14:09 435.950
VELOX 1 28 May 14:13:05 14:17:15 40° 291° (WNW) 14:21:22 145.980
SPROUT 28 May 14:26:07 14:30:21 66° 286° (WNW) 14:34:33 437.525
BEESAT 3 28 May 14:42:54 14:44:18 12° 328° (NNW) 14:45:43 437.485
50 SAT 28 May 14:43:49 14:45:41 14° 297° (WNW) 14:47:34 437.505
AIST 2 28 May 14:46:00 14:50:04 62° 122° (ESE) 14:54:10 435.215
TISAT 1 28 May 14:46:41 14:50:49 58° 101° (E) 14:54:54 437.305
Oscar 19 28 May 14:48:02 14:53:04 49° 260° (W) 14:58:07 437.125/150
AISAT 28 May 14:50:13 14:53:13 18° 298° (WNW) 14:56:14 437.250
BEESAT 28 May 14:50:33 14:52:49 13° 89° (E) 14:55:06 436.000
UKube-1 28 May 14:52:23 14:55:52 24° 295° (WNW) 14:59:20 .
JAS-2 28 May 15:00:04 15:06:35 32° 269° (W) 15:13:28 435.910
CUSAT 1 28 May 15:12:52 15:16:42 15° 309° (NW) 15:20:46 437.405
DANDE 28 May 15:13:40 15:18:23 22° 303° (WNW) 15:23:56 436.750
Gurwin Techsat 1B 28 May 15:18:24 15:23:39 61° 259° (WSW) 15:28:56 435.225
AO-85 28 May 15:19:29 15:24:14 64° 51° (NE) 15:28:32 145.980
Cosmos 2491 28 May 15:21:02 15:29:15 42° 71° (ENE) 15:37:22 435.465 / 435.565
YUBILEINY 28 May 15:27:31 15:32:14 16° 74° (ENE) 15:36:58 435.215
ITAMSAT 1 28 May 15:31:29 15:36:39 76° 73° (ENE) 15:41:51 435.822/435.867
AO-7 28 May 15:32:40 15:40:29 48° 61° (ENE) 15:48:22 29.400- 29.500
SWISSCUBE 28 May 15:56:43 16:01:30 64° 102° (ESE) 16:06:16 437.505
ITUPSAT 1 28 May 16:03:26 16:08:15 66° 103° (ESE) 16:13:01 437.325
TISAT 1 28 May 16:23:39 16:26:01 15° 298° (WNW) 16:28:23 437.305
AIST 2 28 May 16:25:53 16:28:56 20° 321° (NW) 16:32:00 435.215
BEESAT 28 May 16:26:21 16:31:09 75° 286° (WNW) 16:35:55 436.000
AO-85 28 May 17:01:18 17:04:04 16° 252° (WSW) 17:06:42 145.980
KKS-1 28 May 17:04:56 17:09:04 37° 98° (E) 17:13:09 437.445
ITAMSAT 1 28 May 17:13:53 17:16:42 15° 271° (W) 17:19:32 435.822/435.867
RS-15 28 May 17:16:29 17:26:15 36° 105° (ESE) 17:36:28 29.354- 29.394
Cosmos 2491 28 May 17:17:58 17:26:12 48° 272° (W) 17:34:23 435.465 / 435.565
CUTE-I 28 May 17:18:48 17:20:03 11° 53° (NE) 17:21:19 437.470
YUBILEINY 28 May 17:18:50 17:27:30 78° 95° (E) 17:36:12 435.215
AO-7 28 May 17:25:33 17:33:19 43° 261° (W) 17:41:11 29.400- 29.500
MOZHAYETS 4 28 May 17:27:52 17:32:23 51° 99° (E) 17:36:54
HORYU 2 28 May 17:31:07 17:35:32 77° 74° (ENE) 17:39:58 437.375
SWISSCUBE 28 May 17:35:42 17:38:49 17° 299° (WNW) 17:41:55 437.505
STARS 28 May 17:37:39 17:41:48 42° 99° (E) 17:45:56 437.465
Cosmos 2504 28 May 17:41:04 17:47:08 30° 83° (E) 17:53:29 435.465 / 435.565
ITUPSAT 1 28 May 17:42:31 17:45:34 17° 300° (WNW) 17:48:37 437.325
PCSat 28 May 17:45:07 17:48:39 17° 35° (NE) 17:52:10 145.827
NOAA 15 28 May 17:59:47 18:04:29 33° 65° (ENE) 18:09:13 137.62
LilacSat-2 28 May 18:06:03 18:08:25 16° 65° (ENE) 18:10:46 437.200
BEESAT 28 May 18:07:10 18:08:05 10° 304° (NW) 18:08:59 436.000
Cubesat XI-IV 28 May 18:08:57 18:13:24 28° 63° (ENE) 18:17:53 437.490
BRITE-PL 28 May 18:13:49 18:18:54 35° 67° (ENE) 18:23:59 437.365/2234.400
NOAA 18 28 May 18:15:47 18:20:51 40° 66° (ENE) 18:25:54 137.9125
GOMX 1 28 May 18:33:27 18:37:54 26° 65° (ENE) 18:42:16 467.674
O/OREOS (USA 219) 28 May 18:40:08 18:42:47 15° 49° (NE) 18:45:25 437.305
KKS-1 28 May 18:41:54 18:45:27 24° 295° (WNW) 18:48:59 437.445
CUTE-I 28 May 18:53:51 18:59:06 66° 72° (ENE) 19:04:23 437.470
CUBESAT XI-V 28 May 18:56:14 19:00:51 50° 99° (E) 19:05:24 437.345
MOZHAYETS 4 28 May 19:05:54 19:09:12 20° 297° (WNW) 19:12:30
HORYU 2 28 May 19:11:22 19:12:38 11° 271° (W) 19:13:53 437.375
STARS 28 May 19:14:38 19:17:54 21° 296° (WNW) 19:21:09 437.465
DOVE 4 28 May 19:16:22 19:20:51 31° 67° (ENE) 19:25:11 437.250
YUBILEINY 28 May 19:18:23 19:25:17 26° 297° (WNW) 19:32:14 435.215
RS-15 28 May 19:26:16 19:37:43 74° 309° (NW) 19:49:51 29.354- 29.394
PCSat 28 May 19:27:33 19:33:00 74° 56° (NE) 19:38:25 145.827
AUBIESAT-1 28 May 19:28:16 19:30:49 17° 60° (ENE) 19:33:16 437.475
HO-68 28 May 19:32:02 19:37:55 29° 57° (ENE) 19:43:48 435.675
Cosmos 2504 28 May 19:32:56 19:40:00 55° 285° (WNW) 19:47:34 435.465 / 435.565
M-CUBED/EXP-1 PRIME 28 May 19:35:15 19:38:30 24° 63° (ENE) 19:41:35 437.505
LilacSat-2 28 May 19:38:47 19:42:24 42° 261° (W) 19:46:02 437.200
NOAA 15 28 May 19:39:20 19:44:12 36° 263° (W) 19:49:06 137.62
CINEMA 3 28 May 19:40:05 19:42:55 16° 63° (ENE) 19:45:40 145.822/145.860
BEESAT 3 28 May 19:40:25 19:43:21 19° 40° (NE) 19:46:17 437.485
CUTE 1.7 + AOD 2 28 May 19:45:25 19:47:50 15° 62° (ENE) 19:50:14 437.475
Cubesat XI-IV 28 May 19:48:14 19:53:17 43° 262° (W) 19:58:21 437.490
BRITE-PL 28 May 19:51:59 19:57:15 39° 264° (W) 20:02:34 437.365/2234.400
NOAA 18 28 May 19:56:48 20:01:35 31° 264° (W) 20:06:23 137.9125
COMPASS 1 28 May 20:03:21 20:05:03 12° 61° (ENE) 20:06:45 437.405
AAUSAT CUBESAT 2 28 May 20:05:49 20:06:26 10° 59° (ENE) 20:07:03 437.432
GOMX 1 28 May 20:10:24 20:15:42 49° 262° (W) 20:20:54 467.674
O/OREOS (USA 219) 28 May 20:18:15 20:22:45 75° 248° (WSW) 20:27:11 437.305
CUBEBUG 2 28 May 20:22:12 20:24:13 13° 61° (ENE) 20:26:12 437.445
CUBESAT XI-V 28 May 20:34:25 20:37:52 21° 297° (WNW) 20:41:18 437.345
CUTE-I 28 May 20:36:10 20:39:38 17° 270° (W) 20:43:07 437.470
STRAND 1 28 May 20:43:42 20:48:42 48° 100° (E) 20:53:39 437.568
BEESAT 2 28 May 20:45:11 20:49:00 41° 49° (NE) 20:52:47 435.950
UWE-3 28 May 20:47:23 20:50:02 16° 63° (ENE) 20:52:40 435.000/436.395/437.385
FUNcube-1 28 May 20:49:41 20:50:45 11° 60° (ENE) 20:51:48 145.935
CANX-2 28 May 20:51:58 20:56:10 82° 74° (ENE) 21:00:25 2200.000
SEEDS 28 May 20:52:15 20:56:18 52° 73° (ENE) 21:00:24 437.485
DOVE 4 28 May 20:53:38 20:58:26 37° 263° (W) 21:03:04 437.250
AUBIESAT-1 28 May 21:01:08 21:05:04 46° 254° (WSW) 21:08:45 437.475
M-CUBED/EXP-1 PRIME 28 May 21:09:14 21:12:58 32° 257° (WSW) 21:16:27 437.505
PCSat 28 May 21:12:19 21:15:46 17° 255° (WSW) 21:19:14 145.827
CINEMA 3 28 May 21:14:58 21:19:38 63° 259° (W) 21:24:07 145.822/145.860
GONETS M04 28 May 21:16:46 21:22:28 20° 76° (ENE) 21:28:08
BEESAT 3 28 May 21:17:29 21:21:22 56° 239° (WSW) 21:25:14 437.485
HO-68 28 May 21:18:03 21:25:08 66° 257° (WSW) 21:32:16 435.675
CUTE 1.7 + AOD 2 28 May 21:19:04 21:23:13 58° 260° (W) 21:27:24 437.475
AIST 2 28 May 21:28:19 21:30:29 14° 34° (NNE) 21:32:39 435.215
Oscar 11 28 May 21:28:27 21:32:16 32° 69° (ENE) 21:36:07 145.826/435.025
Cosmos 2504 28 May 21:34:04 21:35:36 11° 310° (NW) 21:37:10 435.465 / 435.565
COMPASS 1 28 May 21:35:55 21:40:02 72° 259° (WSW) 21:44:13 437.405
AAUSAT CUBESAT 2 28 May 21:37:07 21:41:15 87° 254° (WSW) 21:45:26 437.432
PRISM 28 May 21:37:39 21:41:20 29° 96° (E) 21:44:59 437.425
RS-15 28 May 21:42:15 21:52:39 34° 340° (NNW) 22:03:29 29.354- 29.394
HUMSAT D 28 May 21:45:03 21:46:14 11° 60° (ENE) 21:47:24 437.325/437.525
ZACube-1 28 May 21:45:06 21:49:04 41° 71° (ENE) 21:53:00 437.345
AIST 1 28 May 21:46:16 21:50:23 40° 92° (E) 21:54:31
CUBEBUG 2 28 May 21:55:59 22:00:20 70° 257° (WSW) 22:04:35 437.445
DELFI C3 28 May 21:57:00 22:00:28 29° 68° (ENE) 22:03:57 145.870
Cosmos 2499 28 May 22:12:29 22:17:58 23° 79° (E) 22:23:41 435.465 / 435.565
CUSAT 1 28 May 22:18:02 22:24:28 27° 61° (ENE) 22:30:06 437.405
UWE-3 28 May 22:21:58 22:26:09 52° 260° (W) 22:30:16 435.000/436.395/437.385
FUNcube-1 28 May 22:22:11 22:26:24 82° 258° (WSW) 22:30:34 145.935
STRAND 1 28 May 22:23:28 22:27:35 25° 297° (WNW) 22:31:41 437.568
BEESAT 2 28 May 22:23:33 22:26:36 21° 247° (WSW) 22:29:38 435.950
DANDE 28 May 22:23:36 22:29:24 20° 56° (NE) 22:34:58 436.750
ISS 28 May 22:27:39 22:30:52 58° 146° (SE) 22:34:05 145.825
SEEDS 28 May 22:29:57 22:32:20 15° 270° (W) 22:34:45 437.485
UNISAT 6 28 May 23:02:14 23:04:37 14° 91° (E) 23:06:58 437.425
Oscar 11 28 May 23:04:53 23:08:26 25° 266° (W) 23:12:01 145.826/435.025
AIST 2 28 May 23:05:32 23:09:42 75° 53° (NE) 23:13:51 435.215
TIGRISAT 28 May 23:09:04 23:11:43 16° 91° (E) 23:14:24 435.000
GONETS M04 28 May 23:09:11 23:18:00 88° 96° (E) 23:26:49
HO-68 28 May 23:12:23 23:14:12 11° 276° (W) 23:16:01 435.675
PRISM 28 May 23:13:03 23:16:34 26° 294° (WNW) 23:20:03 437.425
HUMSAT D 28 May 23:17:11 23:21:15 77° 257° (WSW) 23:25:21 437.325/437.525
ESTCUBE 1 28 May 23:20:09 23:23:48 25° 65° (ENE) 23:27:30 437.505/2401.250
ZACube-1 28 May 23:22:36 23:25:33 18° 268° (W) 23:28:29 437.345
AIST 1 28 May 23:24:53 23:28:10 20° 290° (WNW) 23:31:28
CUBEBUG 1 28 May 23:26:06 23:29:21 20° 64° (ENE) 23:32:36 437.445
DX 1 28 May 23:26:58 23:29:53 18° 62° (ENE) 23:32:49 434.975-435.025
DELFI C3 28 May 23:32:06 23:35:20 23° 266° (W) 23:38:35 145.870
VELOX 1 28 May 23:36:20 23:39:58 25° 65° (ENE) 23:43:37 145.980
PHONESAT 2.4 28 May 23:38:26 23:41:09 27° 167° (SSE) 23:43:51 2401.200-2431.200
ANTELSAT 28 May 23:42:08 23:46:08 36° 98° (E) 23:50:11 437.575/2403.000
SPROUT 28 May 23:47:57 23:50:03 14° 61° (ENE) 23:52:09 437.525
50 SAT 28 May 23:48:56 23:52:09 30° 69° (ENE) 23:55:24 437.505
RS-15 28 May 23:59:25 00:09:51 32° 14° (NNE) 00:20:29 29.354- 29.394
CUSAT 1 28 May 23:59:40 00:07:25 70° 264° (W) 00:13:47 437.405
Cosmos 2499 29 May 00:02:53 00:10:10 71° 281° (WNW) 00:18:04 435.465 / 435.565
ISS 29 May 00:04:27 00:07:27 33° 344° (NNW) 00:10:29 145.825
DANDE 29 May 00:05:17 00:13:48 76° 78° (ENE) 00:21:26 436.750
POPSAT HIP 1 29 May 00:06:16 00:07:58 12° 89° (E) 00:09:40 437.405
QB50P1 29 May 00:06:26 00:08:15 12° 90° (E) 00:10:02 145.935-145.965
QB50P2 29 May 00:08:51 00:11:08 14° 90° (E) 00:13:22 145.880/145.840
SO-50 29 May 00:10:29 00:13:32 17° 109° (ESE) 00:16:33 436.795
POLYITAN 1 29 May 00:11:17 00:13:36 14° 91° (E) 00:15:54 437.675
AISAT 29 May 00:11:42 00:16:05 58° 72° (ENE) 00:20:30 437.250
UKube-1 29 May 00:12:12 00:16:13 39° 69° (ENE) 00:20:16 .
NANOSAT C BR1 29 May 00:23:07 00:26:02 18° 92° (E) 00:28:56 145.865
UNISAT 6 29 May 00:37:27 00:41:41 57° 287° (WNW) 00:45:57 437.425
TIGRISAT 29 May 00:44:33 00:48:42 51° 288° (WNW) 00:52:55 435.000
AIST 2 29 May 00:45:56 00:47:36 12° 251° (WSW) 00:49:16 435.215
ESTCUBE 1 29 May 00:56:15 01:00:27 37° 263° (W) 01:04:40 437.505/2401.250
DUCHIFAT 1 29 May 01:00:13 01:04:12 42° 99° (E) 01:08:09 145.980
CUBEBUG 1 29 May 01:01:04 01:05:19 45° 261° (W) 01:09:36 437.445
DX 1 29 May 01:01:24 01:05:41 53° 259° (W) 01:10:00 434.975-435.025
GONETS M04 29 May 01:09:34 01:16:04 22° 300° (WNW) 01:22:36
VELOX 1 29 May 01:12:10 01:16:16 36° 263° (W) 01:20:24 145.980
BUGSAT 1 29 May 01:12:37 01:16:03 26° 95° (E) 01:19:27 437.445
PHONESAT 2.4 29 May 01:14:37 01:17:32 35° 183° (S) 01:20:26 2401.200-2431.200
ANTELSAT 29 May 01:19:17 01:22:41 23° 294° (WNW) 01:26:05 437.575/2403.000
